755  
ASUS44 KSHV 302010  
RWRSHV  
 
WEATHER ROUNDUP FOR THE FOUR STATE AREA  
NATIONAL WEATHER SERVICE SHREVEPORT LA  
300 PM CDT SUN APR 30 2017  
 
NOTE: "FAIR" INDICATES FEW OR NO CLOUDS BELOW 12000 FEET  
WITH NO SIGNIFICANT WEATHER AND/OR S TO VISIBILITY
.  
 
!LAZ001-LAZ014-TXZ097-302100  
SHREVEPORT...MONROE...TEXARKANA RADIOS  
 
CITY SKY/WX TMP DP RH WIND PRES REMARKS
 
SHREVEPORT MOSUNNY 65 48 54 SW16G23 29.83F  
MONROE CLOUDY 62 53 72 SW14 29.85R  
NATCHITOCHES CLOUDY 63 50 62 SW8 29.88S  
TEXARKANA PTSUNNY 63 45 51 SW18G26 29.79R  

 
 
!LAZ001-LAZ014-TXZ097-302100  
OTHER LOCATIONS...  
 
CITY SKY/WX TMP DP RH WIND PRES REMARKS
 
DOWNTOWN SHV MOSUNNY 65 49 56 SW15 29.83F  
BOSSIER CITY MOSUNNY 65 48 52 W12 29.83F  
RUSTON CLOUDY 59 47 65 SW9 29.88R  
LITTLE ROCK PTSUNNY 59 55 87 SW13G25 29.72S  
EL DORADO CLOUDY 61 51 70 SW15G21 29.80F  
JACKSON CLOUDY 69 66 90 S10 29.82S  
NEW ORLEANS CLOUDY 73 70 90 S10 29.81F  
HOUSTON SUNNY 71 42 35 W14G26 29.92F  
LUFKIN SUNNY 67 43 41 W10G20 29.89F  
TYLER SUNNY 66 39 37 W17G25 29.83S  
DAL FT WORTH MOSUNNY 69 32 25 W28G44 29.77S  

 
 
!TXZ136-TXZ165-302100  
TYLER...LUFKIN RADIOS  
 
CITY SKY/WX TMP DP RH WIND PRES REMARKS
 
TYLER SUNNY 66 39 37 W17G25 29.83S  
GILMER CLOUDY 64 40 41 SW8G23 29.82F  
LONGVIEW MOSUNNY 66 44 45 SW20G28 29.83F  
LUFKIN SUNNY 67 43 41 W10G20 29.89F  

 
 
!TXZ136-TXZ165-302100  
OTHER LOCATIONS...  
 
CITY SKY/WX TMP DP RH WIND PRES REMARKS
 
NACOGDOCHES SUNNY 66 45 45 SW12G17 29.86F  
BEAUMONT PTSUNNY 73 49 42 W10 29.90F  
HOUSTON SUNNY 71 42 35 W14G26 29.92F  
COLLEGE STN SUNNY 72 38 29 W18G25 29.90F  
AUSTIN SUNNY 75 36 24 W10G20 29.92S  
DAL FT WORTH MOSUNNY 69 32 25 W28G44 29.77S  
TEXARKANA PTSUNNY 63 45 51 SW18G26 29.79R  
SHREVEPORT MOSUNNY 65 48 54 SW16G23 29.83F  
FORT POLK CLOUDY 66 50 57 SW9 29.88S  
LAKE CHARLES CLOUDY 70 54 56 NW9 29.90S  

 
 
 
CLICK HERE TO GO TO PREVIOUS BULLETINS.

The Nexlab LA Page
The Nexlab TX Page
The Nexlab AR Page
The Nexlab OK Page Main Text Page